Time,TemperatureF,DewpointF,PressureIn,WindDirection,WindDirectionDegrees,WindSpeedMPH,WindSpeedGustMPH,Humidity,HourlyPrecipIn,Conditions,Clouds,dailyrainin,SoftwareType,DateUTC
2013-05-19 00:02:00,67.0,64.0,29.98,SE,146,0.0,0.0,91,0.00,,,0.01,,2013-05-19 04:02:00,
2013-05-19 00:12:00,67.0,64.0,29.98,SE,146,0.0,0.0,91,0.00,,,0.01,,2013-05-19 04:12:00,
2013-05-19 00:23:00,66.0,63.0,29.98,SE,146,0.0,0.0,91,0.00,,,0.01,,2013-05-19 04:23:00,
2013-05-19 00:33:00,66.0,64.0,29.97,SE,146,0.0,0.0,93,0.00,,,0.01,,2013-05-19 04:33:00,
2013-05-19 00:42:00,66.0,64.0,29.97,SE,146,0.0,0.0,93,0.00,,,0.01,,2013-05-19 04:42:00,
2013-05-19 00:53:00,65.0,63.0,29.97,SE,146,0.0,0.0,93,0.00,,,0.01,,2013-05-19 04:53:00,
2013-05-19 01:02:00,65.0,63.0,29.97,SE,145,0.0,0.0,93,0.00,,,0.01,,2013-05-19 05:02:00,
2013-05-19 01:12:00,65.0,63.0,29.97,SE,145,0.0,0.0,93,0.00,,,0.01,,2013-05-19 05:12:00,
2013-05-19 01:22:00,65.0,63.0,29.96,SE,146,0.0,0.0,94,0.00,,,0.01,,2013-05-19 05:22:00,
2013-05-19 01:32:00,65.0,63.0,29.96,SE,146,0.0,1.0,94,0.00,,,0.01,,2013-05-19 05:32:00,
2013-05-19 01:42:00,64.0,62.0,29.95,SE,146,0.0,0.0,94,0.00,,,0.01,,2013-05-19 05:42:00,
2013-05-19 01:52:00,64.0,62.0,29.95,SE,146,0.0,0.0,94,0.00,,,0.01,,2013-05-19 05:52:00,
2013-05-19 02:02:00,64.0,63.0,29.94,SE,146,0.0,0.0,95,0.00,,,0.01,,2013-05-19 06:02:00,
2013-05-19 02:12:00,64.0,63.0,29.94,SE,146,0.0,0.0,95,0.00,,,0.01,,2013-05-19 06:12:00,
2013-05-19 02:21:00,64.0,63.0,29.93,SE,146,0.0,1.0,95,0.00,,,0.01,,2013-05-19 06:21:00,
2013-05-19 02:32:00,63.0,62.0,29.93,SE,146,0.0,2.0,96,0.00,,,0.01,,2013-05-19 06:32:00,
2013-05-19 02:42:00,64.0,63.0,29.94,SE,145,0.0,1.0,96,0.00,,,0.01,,2013-05-19 06:42:00,
2013-05-19 02:52:00,64.0,63.0,29.94,SE,145,0.0,1.0,96,0.00,,,0.01,,2013-05-19 06:52:00,
2013-05-19 03:01:00,64.0,63.0,29.94,SE,146,0.0,0.0,96,0.00,,,0.01,,2013-05-19 07:01:00,
2013-05-19 03:11:00,64.0,63.0,29.94,SE,146,0.0,0.0,96,0.00,,,0.01,,2013-05-19 07:11:00,
2013-05-19 03:21:00,64.0,63.0,29.94,SE,145,0.0,0.0,96,0.00,,,0.01,,2013-05-19 07:21:00,
2013-05-19 03:32:00,63.0,62.0,29.94,SE,146,0.0,0.0,96,0.00,,,0.01,,2013-05-19 07:32:00,
2013-05-19 03:42:00,63.0,62.0,29.94,SE,146,0.0,0.0,96,0.00,,,0.01,,2013-05-19 07:42:00,
2013-05-19 03:52:00,63.0,62.0,29.94,SE,145,0.0,0.0,96,0.00,,,0.01,,2013-05-19 07:52:00,
2013-05-19 04:01:00,63.0,62.0,29.94,SE,146,0.0,0.0,96,0.00,,,0.01,,2013-05-19 08:01:00,
2013-05-19 04:12:00,63.0,62.0,29.94,SE,146,0.0,0.0,96,0.00,,,0.01,,2013-05-19 08:12:00,
2013-05-19 04:22:00,63.0,62.0,29.94,SE,146,0.0,0.0,96,0.00,,,0.01,,2013-05-19 08:22:00,
2013-05-19 04:32:00,63.0,62.0,29.95,SE,146,0.0,0.0,96,0.00,,,0.01,,2013-05-19 08:32:00,
2013-05-19 04:42:00,63.0,62.0,29.95,SE,146,0.0,0.0,96,0.00,,,0.01,,2013-05-19 08:42:00,
2013-05-19 04:52:00,63.0,62.0,29.95,SE,146,0.0,0.0,97,0.00,,,0.01,,2013-05-19 08:52:00,
2013-05-19 05:02:00,62.0,61.0,29.96,SE,146,0.0,0.0,97,0.00,,,0.01,,2013-05-19 09:02:00,
2013-05-19 05:11:00,62.0,61.0,29.96,SE,146,0.0,0.0,97,0.00,,,0.01,,2013-05-19 09:11:00,
2013-05-19 05:21:00,62.0,61.0,29.96,SE,146,0.0,0.0,96,0.00,,,0.01,,2013-05-19 09:21:00,
2013-05-19 05:32:00,62.0,61.0,29.96,SE,146,0.0,0.0,97,0.00,,,0.01,,2013-05-19 09:32:00,
2013-05-19 05:42:00,62.0,61.0,29.96,SE,146,0.0,0.0,97,0.00,,,0.01,,2013-05-19 09:42:00,
2013-05-19 05:53:00,62.0,61.0,29.96,SE,146,0.0,0.0,97,0.00,,,0.01,,2013-05-19 09:53:00,
2013-05-19 06:02:00,62.0,61.0,29.96,SE,146,0.0,0.0,97,0.00,,,0.01,,2013-05-19 10:02:00,
2013-05-19 06:12:00,62.0,61.0,29.96,SE,146,0.0,0.0,97,0.00,,,0.01,,2013-05-19 10:12:00,
2013-05-19 06:22:00,62.0,61.0,29.96,SE,146,0.0,0.0,97,0.00,,,0.01,,2013-05-19 10:22:00,
2013-05-19 06:33:00,61.0,60.0,29.95,SE,145,0.0,0.0,97,0.00,,,0.01,,2013-05-19 10:33:00,
2013-05-19 06:42:00,61.0,60.0,29.95,SE,145,0.0,0.0,97,0.00,,,0.01,,2013-05-19 10:42:00,
2013-05-19 06:52:00,61.0,60.0,29.95,SE,146,0.0,1.0,97,0.00,,,0.01,,2013-05-19 10:52:00,
2013-05-19 07:02:00,61.0,60.0,29.95,SE,146,0.0,1.0,97,0.00,,,0.01,,2013-05-19 11:02:00,
2013-05-19 07:11:00,61.0,60.0,29.95,SE,146,0.0,1.0,97,0.00,,,0.01,,2013-05-19 11:11:00,
2013-05-19 07:21:00,62.0,61.0,29.95,SE,146,0.0,1.0,98,0.00,,,0.01,,2013-05-19 11:21:00,
2013-05-19 07:32:00,62.0,61.0,29.95,SE,146,0.0,1.0,98,0.00,,,0.00,,2013-05-19 11:32:00,
2013-05-19 07:42:00,62.0,61.0,29.95,SE,146,0.0,1.0,98,0.00,,,0.00,,2013-05-19 11:42:00,
2013-05-19 07:52:00,63.0,62.0,29.95,SE,145,0.0,1.0,98,0.00,,,0.00,,2013-05-19 11:52:00,
2013-05-19 08:01:00,63.0,62.0,29.96,SE,145,0.0,0.0,98,0.00,,,0.00,,2013-05-19 12:01:00,
2013-05-19 08:11:00,63.0,62.0,29.96,SE,145,0.0,0.0,98,0.00,,,0.00,,2013-05-19 12:11:00,
2013-05-19 08:21:00,64.0,63.0,29.97,SE,146,0.0,0.0,98,0.00,,,0.00,,2013-05-19 12:21:00,
2013-05-19 08:31:00,65.0,64.0,29.97,SE,146,0.0,1.0,98,0.00,,,0.00,,2013-05-19 12:31:00,
2013-05-19 08:41:00,65.0,64.0,29.97,SE,146,0.0,1.0,98,0.00,,,0.00,,2013-05-19 12:41:00,
2013-05-19 08:52:00,65.0,65.0,29.98,SSE,153,0.0,0.0,99,0.00,,,0.00,,2013-05-19 12:52:00,
2013-05-19 09:01:00,66.0,65.0,29.97,SSE,153,0.0,1.0,98,0.00,,,0.00,,2013-05-19 13:01:00,
2013-05-19 09:11:00,66.0,65.0,29.97,SSE,153,0.0,1.0,98,0.00,,,0.00,,2013-05-19 13:11:00,
2013-05-19 09:21:00,67.0,66.0,29.97,South,171,0.0,0.0,98,0.00,,,0.00,,2013-05-19 13:21:00,
2013-05-19 09:32:00,68.0,67.0,29.97,South,171,0.0,1.0,97,0.00,,,0.00,,2013-05-19 13:32:00,
2013-05-19 09:42:00,68.0,67.0,29.97,South,171,0.0,1.0,97,0.00,,,0.00,,2013-05-19 13:42:00,
2013-05-19 09:52:00,70.0,68.0,29.97,South,171,0.0,1.0,93,0.00,,,0.00,,2013-05-19 13:52:00,
2013-05-19 10:02:00,72.0,68.0,29.97,SSW,194,0.0,1.0,88,0.00,,,0.00,,2013-05-19 14:02:00,
2013-05-19 10:11:00,72.0,68.0,29.97,SSW,194,0.0,1.0,88,0.00,,,0.00,,2013-05-19 14:11:00,
2013-05-19 10:21:00,73.0,69.0,29.98,SSW,194,0.0,1.0,88,0.00,,,0.00,,2013-05-19 14:21:00,
2013-05-19 10:32:00,75.0,70.0,29.97,SSW,196,0.0,1.0,85,0.00,,,0.00,,2013-05-19 14:32:00,
2013-05-19 10:41:00,75.0,70.0,29.97,SSW,196,0.0,1.0,85,0.00,,,0.00,,2013-05-19 14:41:00,
2013-05-19 10:52:00,76.0,70.0,29.97,SSW,195,0.0,1.0,83,0.00,,,0.00,,2013-05-19 14:52:00,
2013-05-19 11:01:00,77.0,70.0,29.97,SSW,196,0.0,1.0,79,0.00,,,0.00,,2013-05-19 15:01:00,
2013-05-19 11:11:00,77.0,70.0,29.97,SSW,196,0.0,1.0,79,0.00,,,0.00,,2013-05-19 15:11:00,
2013-05-19 11:21:00,76.0,69.0,29.97,SSW,196,0.0,1.0,79,0.00,,,0.00,,2013-05-19 15:21:00,
2013-05-19 11:33:00,77.0,69.0,29.97,SE,135,1.0,4.0,77,0.00,,,0.00,,2013-05-19 15:33:00,
2013-05-19 11:43:00,77.0,69.0,29.97,SE,135,1.0,4.0,77,0.00,,,0.00,,2013-05-19 15:43:00,
2013-05-19 11:53:00,79.0,68.0,29.96,SSE,155,2.0,5.0,70,0.00,,,0.00,,2013-05-19 15:53:00,
2013-05-19 12:03:00,80.0,69.0,29.97,SE,132,1.0,6.0,70,0.00,,,0.00,,2013-05-19 16:03:00,
2013-05-19 12:12:00,80.0,69.0,29.97,SE,132,1.0,6.0,70,0.00,,,0.00,,2013-05-19 16:12:00,
2013-05-19 12:23:00,81.0,69.0,29.95,South,182,2.0,7.0,68,0.00,,,0.00,,2013-05-19 16:23:00,
2013-05-19 12:32:00,81.0,69.0,29.94,ESE,119,2.0,7.0,68,0.00,,,0.00,,2013-05-19 16:32:00,
2013-05-19 12:42:00,81.0,69.0,29.94,ESE,119,2.0,7.0,68,0.00,,,0.00,,2013-05-19 16:42:00,
2013-05-19 12:52:00,81.0,69.0,29.94,SSE,149,3.0,7.0,67,0.00,,,0.00,,2013-05-19 16:52:00,
2013-05-19 13:02:00,82.0,69.0,29.92,SE,137,1.0,9.0,66,0.00,,,0.00,,2013-05-19 17:02:00,
2013-05-19 13:12:00,82.0,69.0,29.92,SE,137,1.0,9.0,66,0.00,,,0.00,,2013-05-19 17:12:00,
2013-05-19 13:22:00,82.0,68.0,29.93,WNW,298,2.0,8.0,63,0.00,,,0.00,,2013-05-19 17:22:00,
2013-05-19 13:32:00,83.0,70.0,29.91,SE,130,1.0,9.0,64,0.00,,,0.00,,2013-05-19 17:32:00,
2013-05-19 13:42:00,83.0,70.0,29.91,SE,130,1.0,9.0,64,0.00,,,0.00,,2013-05-19 17:42:00,
2013-05-19 13:52:00,84.0,69.0,29.91,South,172,2.0,11.0,61,0.00,,,0.00,,2013-05-19 17:52:00,
2013-05-19 14:02:00,84.0,68.0,29.91,SSE,148,2.0,11.0,58,0.00,,,0.00,,2013-05-19 18:02:00,
2013-05-19 14:12:00,84.0,68.0,29.91,SSE,148,2.0,11.0,58,0.00,,,0.00,,2013-05-19 18:12:00,
2013-05-19 14:22:00,85.0,70.0,29.90,South,175,2.0,10.0,61,0.00,,,0.00,,2013-05-19 18:22:00,
2013-05-19 14:32:00,85.0,69.0,29.89,SSE,163,1.0,6.0,58,0.00,,,0.00,,2013-05-19 18:32:00,
2013-05-19 14:42:00,85.0,69.0,29.89,SSE,163,1.0,6.0,58,0.00,,,0.00,,2013-05-19 18:42:00,
2013-05-19 14:53:00,85.0,68.0,29.89,WNW,295,0.0,3.0,57,0.00,,,0.00,,2013-05-19 18:53:00,
2013-05-19 15:01:00,85.0,69.0,29.90,West,264,0.0,4.0,58,0.00,,,0.00,,2013-05-19 19:01:00,
2013-05-19 15:11:00,85.0,69.0,29.90,West,264,0.0,4.0,58,0.00,,,0.00,,2013-05-19 19:11:00,
2013-05-19 15:22:00,85.0,69.0,29.90,West,267,0.0,4.0,59,0.00,,,0.00,,2013-05-19 19:22:00,
2013-05-19 15:32:00,85.0,70.0,29.89,SSW,213,1.0,5.0,62,0.00,,,0.00,,2013-05-19 19:32:00,
2013-05-19 15:42:00,85.0,70.0,29.89,SSW,213,1.0,5.0,62,0.00,,,0.00,,2013-05-19 19:42:00,
2013-05-19 15:52:00,86.0,70.0,29.88,NE,45,0.0,5.0,60,0.00,,,0.00,,2013-05-19 19:52:00,
2013-05-19 16:02:00,86.0,69.0,29.87,SSE,152,1.0,6.0,57,0.00,,,0.00,,2013-05-19 20:02:00,
2013-05-19 16:11:00,86.0,69.0,29.87,SSE,152,1.0,6.0,57,0.00,,,0.00,,2013-05-19 20:11:00,
2013-05-19 16:21:00,87.0,70.0,29.86,NW,316,0.0,3.0,58,0.00,,,0.00,,2013-05-19 20:21:00,
2013-05-19 16:32:00,86.0,69.0,29.87,SSW,213,0.0,3.0,57,0.00,,,0.00,,2013-05-19 20:32:00,
2013-05-19 16:41:00,86.0,69.0,29.87,SSW,213,0.0,3.0,57,0.00,,,0.00,,2013-05-19 20:41:00,
2013-05-19 16:52:00,85.0,70.0,29.87,North,350,0.0,1.0,62,0.00,,,0.00,,2013-05-19 20:52:00,
2013-05-19 17:02:00,85.0,70.0,29.86,SE,146,0.0,4.0,61,0.00,,,0.00,,2013-05-19 21:02:00,
2013-05-19 17:11:00,85.0,70.0,29.86,SE,146,0.0,4.0,61,0.00,,,0.00,,2013-05-19 21:11:00,
2013-05-19 17:22:00,85.0,70.0,29.85,SSE,151,0.0,4.0,60,0.00,,,0.00,,2013-05-19 21:22:00,
2013-05-19 17:32:00,86.0,71.0,29.85,ENE,74,0.0,4.0,62,0.00,,,0.00,,2013-05-19 21:32:00,
2013-05-19 17:53:00,86.0,69.0,29.85,WNW,301,1.0,7.0,58,0.00,,,0.00,,2013-05-19 21:53:00,
2013-05-19 18:02:00,86.0,68.0,29.84,West,260,1.0,8.0,56,0.00,,,0.00,,2013-05-19 22:02:00,
2013-05-19 18:12:00,86.0,68.0,29.84,West,260,1.0,8.0,56,0.00,,,0.00,,2013-05-19 22:12:00,
2013-05-19 18:23:00,85.0,69.0,29.83,SSE,166,1.0,5.0,59,0.00,,,0.00,,2013-05-19 22:23:00,
2013-05-19 18:33:00,85.0,68.0,29.83,ESE,116,0.0,4.0,57,0.00,,,0.00,,2013-05-19 22:33:00,
2013-05-19 18:42:00,85.0,68.0,29.83,ESE,116,0.0,4.0,57,0.00,,,0.00,,2013-05-19 22:42:00,
2013-05-19 18:53:00,84.0,69.0,29.82,SW,236,1.0,3.0,60,0.00,,,0.00,,2013-05-19 22:53:00,
2013-05-19 19:02:00,83.0,68.0,29.82,North,360,0.0,11.0,61,0.00,,,0.00,,2013-05-19 23:02:00,
2013-05-19 19:11:00,83.0,68.0,29.82,North,360,0.0,11.0,61,0.00,,,0.00,,2013-05-19 23:11:00,
2013-05-19 19:21:00,82.0,67.0,29.82,SE,129,0.0,2.0,61,0.00,,,0.00,,2013-05-19 23:21:00,
2013-05-19 19:32:00,82.0,68.0,29.82,ESE,110,0.0,3.0,63,0.00,,,0.00,,2013-05-19 23:32:00,
2013-05-19 19:42:00,81.0,67.0,29.81,SSW,210,1.0,8.0,63,0.00,,,0.00,,2013-05-19 23:42:00,
2013-05-19 19:52:00,81.0,67.0,29.81,SSW,210,1.0,8.0,63,0.00,,,0.00,,2013-05-19 23:52:00,
2013-05-19 20:02:00,81.0,68.0,29.82,SSW,195,0.0,7.0,64,0.00,,,0.00,,2013-05-20 00:02:00,
2013-05-19 20:11:00,81.0,68.0,29.82,SSW,195,0.0,7.0,64,0.00,,,0.00,,2013-05-20 00:11:00,
2013-05-19 20:21:00,81.0,68.0,29.83,SW,229,0.0,4.0,65,0.00,,,0.00,,2013-05-20 00:21:00,
2013-05-19 20:32:00,80.0,68.0,29.83,SW,234,0.0,5.0,66,0.00,,,0.00,,2013-05-20 00:32:00,
2013-05-19 20:42:00,80.0,68.0,29.83,SW,234,0.0,5.0,66,0.00,,,0.00,,2013-05-20 00:42:00,
2013-05-19 20:52:00,80.0,68.0,29.83,WSW,252,0.0,2.0,68,0.00,,,0.00,,2013-05-20 00:52:00,
2013-05-19 21:01:00,79.0,68.0,29.83,SW,227,0.0,1.0,70,0.00,,,0.00,,2013-05-20 01:01:00,
2013-05-19 21:11:00,79.0,68.0,29.83,SW,227,0.0,1.0,70,0.00,,,0.00,,2013-05-20 01:11:00,
2013-05-19 21:21:00,78.0,68.0,29.84,SSE,153,0.0,3.0,71,0.00,,,0.00,,2013-05-20 01:21:00,
2013-05-19 21:31:00,77.0,68.0,29.84,SSE,153,0.0,1.0,73,0.00,,,0.00,,2013-05-20 01:31:00,
2013-05-19 21:42:00,77.0,68.0,29.84,SSE,153,0.0,1.0,73,0.00,,,0.00,,2013-05-20 01:42:00,
2013-05-19 21:52:00,77.0,68.0,29.85,SSE,153,0.0,1.0,74,0.00,,,0.00,,2013-05-20 01:52:00,
2013-05-19 22:02:00,76.0,68.0,29.85,SSE,153,0.0,1.0,76,0.00,,,0.00,,2013-05-20 02:02:00,
2013-05-19 22:11:00,76.0,68.0,29.85,SSE,153,0.0,1.0,76,0.00,,,0.00,,2013-05-20 02:11:00,
2013-05-19 22:21:00,75.0,68.0,29.85,SSE,153,0.0,1.0,78,0.00,,,0.00,,2013-05-20 02:21:00,
2013-05-19 22:31:00,75.0,68.0,29.85,SSE,153,0.0,0.0,79,0.00,,,0.00,,2013-05-20 02:31:00,
2013-05-19 22:42:00,75.0,68.0,29.85,SSE,153,0.0,0.0,79,0.00,,,0.00,,2013-05-20 02:42:00,
2013-05-19 22:52:00,74.0,68.0,29.85,SSE,153,0.0,1.0,81,0.00,,,0.00,,2013-05-20 02:52:00,
2013-05-19 23:01:00,74.0,68.0,29.85,SSE,153,0.0,1.0,82,0.00,,,0.00,,2013-05-20 03:01:00,
2013-05-19 23:11:00,73.0,68.0,29.85,SSE,153,0.0,1.0,83,0.00,,,0.00,,2013-05-20 03:11:00,
2013-05-19 23:21:00,73.0,68.0,29.85,SSE,153,0.0,1.0,83,0.00,,,0.00,,2013-05-20 03:21:00,
2013-05-19 23:33:00,73.0,68.0,29.85,SSW,195,0.0,2.0,84,0.00,,,0.00,,2013-05-20 03:33:00,
2013-05-19 23:42:00,73.0,68.0,29.85,SSW,195,0.0,1.0,85,0.00,,,0.00,,2013-05-20 03:42:00,
2013-05-19 23:52:00,73.0,68.0,29.85,SSW,195,0.0,1.0,85,0.00,,,0.00,,2013-05-20 03:52:00,